Location: Unspecified
(52.4292°N, 19.3359°E)
Time: 23:26:52
(UTC+02:00)

SR - Pass Details

Date: 04 June 2024
Orbit: 580 x 858 km, 66.7° (Epoch: 12 June)

Event Time Altitude Azimuth Distance (km) Brightness Sun altitude
Rises 19:46:57 0° 304° (NW) 2,980 ? 8.3°
Reaches altitude 10° 19:50:32 10° 332° (NNW) 2,011 ? 7.8°
Maximum altitude 19:52:40 13° 1° (N) 1,783 ? 7.5°
Drops below altitude 10° 19:54:46 10° 30° (NNE) 1,956 ? 7.3°
Sets 19:58:09 0° 58° (ENE) 2,826 ? 6.8°
